• In Russia
  • List of Countries
  • For 7 days
  • Water Temperature
  • Satellite Maps
  • Weather Map
  • Weather Widgets
  • user-avatar
    Login

    Hourly Weather Algiers

    Today, 19 June, Tuesday

    Time Temperature Precipitation Wind Pressure Humidity
    00:00 +21°C° 0 mm 2 mps 751 mmHg 68%
    01:00 +21°C° 0 mm 2 mps 751 mmHg 69%
    02:00 +20°C° 0 mm 2 mps 751 mmHg 70%
    03:00 +20°C° 0 mm 2 mps 751 mmHg 71%
    04:00 +20°C° 0 mm 2 mps 751 mmHg 70%
    05:00 +21°C° 0 mm 2 mps 751 mmHg 69%
    06:00 +21°C° 0 mm 2 mps 751 mmHg 68%
    07:00 +22°C° 0 mm 3 mps 751 mmHg 64%
    08:00 +25°C° 0 mm 3 mps 751 mmHg 60%
    09:00 +26°C° 0 mm 3 mps 751 mmHg 56%
    10:00 +27°C° 0 mm 3 mps 751 mmHg 54%
    11:00 +28°C° 0 mm 4 mps 751 mmHg 52%
    12:00 +29°C° 0 mm 4 mps 751 mmHg 50%
    13:00 +29°C° 0 mm 4 mps 751 mmHg 51%
    14:00 +29°C° 0 mm 5 mps 750 mmHg 52%
    15:00 +29°C° 0 mm 5 mps 750 mmHg 53%
    16:00 +28°C° 0 mm 5 mps 750 mmHg 58%
    17:00 +27°C° 0 mm 4 mps 750 mmHg 62%
    18:00 +26°C° 0 mm 4 mps 750 mmHg 66%
    19:00 +25°C° 0 mm 4 mps 750 mmHg 73%
    20:00 +24°C° 0 mm 3 mps 751 mmHg 79%
    21:00 +22°C° 0 mm 3 mps 751 mmHg 85%
    22:00 +22°C° 0 mm 3 mps 751 mmHg 86%
    23:00 +21°C° 0 mm 2 mps 751 mmHg 87%

    Tomorrow, 20 June, Wednesday

    Time Temperature Precipitation Wind Pressure Humidity
    00:00 +21°C° 0 mm 2 mps 751 mmHg 88%
    01:00 +21°C° 0 mm 2 mps 751 mmHg 87%
    02:00 +21°C° 0 mm 2 mps 750 mmHg 87%
    03:00 +20°C° 0 mm 2 mps 750 mmHg 86%
    04:00 +21°C° 0 mm 2 mps 750 mmHg 81%
    05:00 +23°C° 0 mm 2 mps 750 mmHg 76%
    06:00 +23°C° 0 mm 2 mps 750 mmHg 72%
    07:00 +25°C° 0 mm 2 mps 751 mmHg 63%
    08:00 +27°C° 0 mm 3 mps 751 mmHg 54%
    09:00 +29°C° 0 mm 3 mps 751 mmHg 46%
    10:00 +30°C° 0 mm 3 mps 751 mmHg 43%
    11:00 +32°C° 0 mm 4 mps 750 mmHg 40%
    12:00 +33°C° 0 mm 4 mps 750 mmHg 38%
    13:00 +33°C° 0 mm 5 mps 750 mmHg 39%
    14:00 +33°C° 0 mm 5 mps 750 mmHg 40%
    15:00 +33°C° 0 mm 5 mps 749 mmHg 41%
    16:00 +32°C° 0 mm 5 mps 749 mmHg 45%
    17:00 +30°C° 0 mm 5 mps 749 mmHg 49%
    18:00 +29°C° 0 mm 5 mps 749 mmHg 53%
    19:00 +28°C° 0 mm 4 mps 749 mmHg 59%
    20:00 +27°C° 0 mm 4 mps 749 mmHg 64%
    21:00 +25°C° 0 mm 4 mps 750 mmHg 70%
    22:00 +25°C° 0 mm 4 mps 749 mmHg 70%
    23:00 +25°C° 0 mm 3 mps 749 mmHg 71%

    Day after tomorrow, 21 June, Thursday

    Time Temperature Precipitation Wind Pressure Humidity
    00:00 +25°C° 0 mm 3 mps 749 mmHg 71%
    01:00 +25°C° 0 mm 3 mps 749 mmHg 70%
    02:00 +25°C° 0 mm 3 mps 748 mmHg 70%
    03:00 +24°C° 0 mm 3 mps 748 mmHg 69%
    04:00 +25°C° 0 mm 3 mps 748 mmHg 65%
    05:00 +26°C° 0 mm 3 mps 748 mmHg 61%
    06:00 +27°C° 0 mm 3 mps 748 mmHg 58%
    07:00 +29°C° 0 mm 4 mps 748 mmHg 51%
    08:00 +32°C° 0 mm 4 mps 748 mmHg 45%
    09:00 +33°C° 0 mm 4 mps 749 mmHg 38%
    10:00 +34°C° 0 mm 5 mps 748 mmHg 37%
    11:00 +35°C° 0 mm 5 mps 748 mmHg 35%
    12:00 +36°C° 0 mm 6 mps 748 mmHg 34%
    13:00 +35°C° 0 mm 6 mps 748 mmHg 36%
    14:00 +35°C° 0 mm 6 mps 747 mmHg 38%
    15:00 +35°C° 0 mm 6 mps 747 mmHg 39%
    16:00 +33°C° 0 mm 6 mps 747 mmHg 44%
    17:00 +32°C° 0 mm 5 mps 747 mmHg 48%
    18:00 +30°C° 0 mm 5 mps 747 mmHg 52%
    19:00 +28°C° 0 mm 4 mps 748 mmHg 58%
    20:00 +27°C° 0 mm 4 mps 748 mmHg 64%
    21:00 +26°C° 0 mm 3 mps 748 mmHg 69%
    22:00 +25°C° 0 mm 3 mps 748 mmHg 71%
    23:00 +25°C° 0 mm 3 mps 748 mmHg 72%

    22 June, Friday

    Time Temperature Precipitation Wind Pressure Humidity
    00:00 +24°C° 0 mm 3 mps 748 mmHg 73%
    01:00 +24°C° 0 mm 2 mps 748 mmHg 72%
    02:00 +24°C° 0 mm 2 mps 748 mmHg 71%
    03:00 +24°C° 0 mm 2 mps 747 mmHg 70%
    04:00 +24°C° 0 mm 2 mps 747 mmHg 67%
    05:00 +25°C° 0 mm 2 mps 748 mmHg 65%
    06:00 +26°C° 0 mm 2 mps 748 mmHg 62%
    07:00 +27°C° 0 mm 3 mps 748 mmHg 55%
    08:00 +29°C° 0 mm 3 mps 748 mmHg 49%
    09:00 +32°C° 0 mm 4 mps 748 mmHg 42%
    10:00 +33°C° 0 mm 4 mps 748 mmHg 40%
    11:00 +34°C° 0 mm 4 mps 748 mmHg 37%
    12:00 +35°C° 0 mm 4 mps 748 mmHg 34%
    13:00 +35°C° 0 mm 5 mps 748 mmHg 34%
    14:00 +35°C° 0 mm 5 mps 748 mmHg 34%
    15:00 +35°C° 0 mm 5 mps 747 mmHg 34%
    16:00 +34°C° 0 mm 5 mps 747 mmHg 37%
    17:00 +33°C° 0 mm 5 mps 747 mmHg 40%
    18:00 +32°C° 0 mm 5 mps 747 mmHg 42%
    19:00 +30°C° 0 mm 4 mps 747 mmHg 45%
    20:00 +29°C° 0 mm 4 mps 748 mmHg 48%
    21:00 +28°C° 0 mm 4 mps 748 mmHg 52%
    22:00 +28°C° 0 mm 4 mps 748 mmHg 51%
    23:00 +27°C° 0 mm 5 mps 748 mmHg 51%

    23 June, Saturday

    Time Temperature Precipitation Wind Pressure Humidity
    00:00 +27°C° 0 mm 5 mps 748 mmHg 50%
    01:00 +27°C° 0 mm 5 mps 747 mmHg 50%
    02:00 +27°C° 0 mm 4 mps 747 mmHg 49%
    03:00 +27°C° 0 mm 4 mps 747 mmHg 48%
    04:00 +28°C° 0 mm 4 mps 747 mmHg 47%
    05:00 +28°C° 0 mm 4 mps 747 mmHg 46%
    06:00 +29°C° 0 mm 4 mps 747 mmHg 45%
    07:00 +32°C° 0 mm 4 mps 748 mmHg 40%
    08:00 +34°C° 0 mm 5 mps 748 mmHg 35%
    09:00 +36°C° 0 mm 5 mps 748 mmHg 30%
    10:00 +37°C° 0 mm 5 mps 748 mmHg 29%
    11:00 +39°C° 0 mm 6 mps 748 mmHg 28%
    12:00 +40°C° 0 mm 7 mps 748 mmHg 26%
    13:00 +40°C° 0 mm 7 mps 747 mmHg 27%
    14:00 +40°C° 0 mm 7 mps 747 mmHg 27%
    15:00 +39°C° 0 mm 7 mps 747 mmHg 28%
    16:00 +38°C° 0 mm 7 mps 747 mmHg 31%
    17:00 +36°C° 0 mm 7 mps 746 mmHg 34%
    18:00 +35°C° 0 mm 7 mps 746 mmHg 37%
    19:00 +34°C° 0 mm 7 mps 747 mmHg 40%
    20:00 +33°C° 0 mm 7 mps 747 mmHg 43%
    21:00 +32°C° 0 mm 7 mps 747 mmHg 46%
    22:00 +32°C° 0 mm 7 mps 747 mmHg 45%
    23:00 +32°C° 0 mm 6 mps 746 mmHg 44%

    24 June, Sunday

    Time Temperature Precipitation Wind Pressure Humidity
    00:00 +32°C° 0 mm 6 mps 746 mmHg 43%
    01:00 +30°C° 0 mm 6 mps 746 mmHg 44%
    02:00 +30°C° 0 mm 6 mps 746 mmHg 44%
    03:00 +30°C° 0 mm 5 mps 745 mmHg 45%
    04:00 +30°C° 0 mm 5 mps 746 mmHg 44%
    05:00 +32°C° 0 mm 5 mps 746 mmHg 44%
    06:00 +32°C° 0 mm 5 mps 746 mmHg 44%
    07:00 +34°C° 0 mm 6 mps 746 mmHg 38%
    08:00 +36°C° 0 mm 6 mps 746 mmHg 32%
    09:00 +40°C° 0 mm 7 mps 746 mmHg 26%
    10:00 +40°C° 0 mm 7 mps 746 mmHg 26%
    11:00 +41°C° 0 mm 7 mps 745 mmHg 26%
    12:00 +41°C° 0 mm 7 mps 745 mmHg 26%
    13:00 +40°C° 0 mm 7 mps 745 mmHg 30%
    14:00 +39°C° 0 mm 7 mps 744 mmHg 34%
    15:00 +38°C° 0 mm 6 mps 744 mmHg 38%
    16:00 +35°C° 0 mm 6 mps 744 mmHg 43%
    17:00 +34°C° 0 mm 5 mps 744 mmHg 49%
    18:00 +32°C° 0 mm 4 mps 745 mmHg 54%
    19:00 +30°C° 0 mm 4 mps 745 mmHg 60%
    20:00 +28°C° 0 mm 4 mps 746 mmHg 66%
    21:00 +27°C° 0 mm 3 mps 746 mmHg 72%
    22:00 +26°C° 0 mm 3 mps 746 mmHg 75%
    23:00 +26°C° 0 mm 2 mps 746 mmHg 77%
    Show more